Location: Treviso
(45.6669°N, 12.2430°E)
Time: 04:41:05
(UTC+01:00)

ISS - Pass Details

Date: 21 May 2017
Orbit: 402 x 407 km, 51.6° (Epoch: 13 December)

Event Time Altitude Azimuth Distance (km) Brightness Sun altitude
Exits shadow 03:07:46 - 293° (WNW) 2,154 -0.2 -18.7°
Reaches altitude 10° 03:09:31 10° 303° (WNW) 1,493 -0.9 -18.6°
Drops below altitude 10° 03:15:27 10° 69° (ENE) 1,481 -0.2 -18.0°
Enters shadow 04:19:14 -55° 288° (WNW) 10,953 3.3 -11.1°
Maximum altitude 04:49:33 69° 25° (NNE) 443 -3.4 -7.2°
